Honolulu, HI

10:12 AM HST on December 28, 2014 (GMT -1000)
Pacific Heights | Change Station
CLOSE
Current Station
Personal Weather Station
Location: Honolulu, HI
Elevation: 528 ft
Nearby Weather Stations

Elev 528 ft 21.33 °N, 157.84 °W | Updated 1 second ago

Scattered Clouds
Scattered Clouds
70.5 °F
Feels Like 75 °F
N
6.0
Wind Variable Wind from ENE
Gusts 11.0 mph

Today
High -- | Low -- °F
--% Chance of Precip.
Yesterday
High -- | Low -- °F
Precip. -- in
7:07 AM 5:58 PM
Waxing Crescent, 51% visible
Pressure 29.99 in
Visibility 10.0 miles
Clouds Few 4100 ft
Scattered Clouds 4600 ft
Heat Index 75 °F
Dew Point 58 °F
Humidity 64%
Rainfall 0.00 in
Snow Depth Not available.
UV 3 out of 12
Pollen Not available.
Air Quality Not available.
Flu Activity Not available.
METAR PHNL 281953Z 36010KT 10SM FEW041 SCT046 24/14 A2999 RMK AO2 SLP154 T02440139

More Conditions Fewer Conditions

Pressure 29.99 in
Visibility 10.0 miles
Clouds Few 4100 ft
Scattered Clouds 4600 ft
Heat Index 75 °F
Dew Point 58 °F
Humidity 64%
Rainfall 0.00 in
Snow Depth Not available.
UV 3 out of 12
Pollen Not available.
Air Quality Not available.
Flu Activity Not available.
METAR PHNL 281953Z 36010KT 10SM FEW041 SCT046 24/14 A2999 RMK AO2 SLP154 T02440139

More Conditions Fewer Conditions

10-Day Weather Forecast

Almanac

Astronomy

Dec. 28, 2014 Rise Set
Actual Time
Civil Twilight
Nautical Twilight
Astronomical Twilight
Moon
Length of Visible Light
Length of Day
Tomorrow will be .
, % of the Moon is Illuminated

Today's Extremes

State Highs State Lows

Community

WunderPhotos

Upload Photos

1,781,410 photos uploaded!

WunderBlogs® & News

Nearby

Air Quality

  Air Quality AQ Index Pollutant
Not available.

Snow Depth

Station Depth Elevation

Earthquake Activity

City Distance Mag. Time & Date
Minimum magnitude displayed is 2.5.

Coastal Water Temperatures

Place Temperature

Nearby Weather Stations